Weather in Kutaisi

Georgia     42˚16′17″N   42˚42′19″E
temp.,
°C
wind,
m/s
gust,
m/s
humid.,
%
clouds,
%
prec.,
mm/h
press.,
hPa
HPBL,
m
2 december, wed
wed201:00+9˚e4953100 0.0 1024380
04:00+8˚e3753100 0.0 1025238
07:00+7˚e365359 0.0 1025167
10:00+10˚e494545 0.0 1025415
13:00+15˚e373316 0.0 1023654
16:00+15˚ese363841 0.0 1022397
19:00+11˚ene234693 0.0 102468
22:00+10˚ene335078 0.0 102572
3 december, thu
thu301:00+9˚ene411512 0.0 1026422
04:00+9˚e412531 0.0 1026437
07:00+8˚e412550 0.0 1026413
10:00+10˚e512510 0.0 1026629
13:00+14˚e611410 0.0 1025781
16:00+14˚e611420 0.0 1024724
19:00+11˚e614520 0.0 1026597
22:00+10˚e715550 0.0 1026632
4 december, fri
fri401:00+9˚e716560 0.0 1026736
04:00+9˚e716550 0.0 1026755
07:00+9˚e716540 0.0 1025723
10:00+10˚e815490 0.0 1025810
13:00+13˚e914400 0.0 1023882
16:00+13˚e915400 0.0 1022782
19:00+10˚e715480 0.0 1023648
22:00+9˚e715510 0.0 1024646
5 december, sat
sat501:00+9˚e716520 0.0 1024655
04:00+9˚e716520 0.0 1024652
07:00+8˚e614530 0.0 1023592
10:00+9˚e613480 0.0 1023678
13:00+13˚e712390 0.0 1021770
16:00+13˚e611390 0.0 1021673
19:00+10˚e5134917 0.0 1023560
22:00+9˚ene5145145 0.0 1024628
6 december, sun
sun601:00+9˚ene5145289 0.0 1024663
04:00+8˚ene5145291 0.0 1024668
07:00+8˚e4135195 0.0 1024614
10:00+9˚e5134792 0.0 1024738
13:00+13˚e7123823 0.0 1023901
16:00+13˚e7113711 0.0 1022881
19:00+10˚e513460 0.0 1024651
22:00+9˚e514510 0.0 1025696